TimeAST,TemperatureF,Dew PointF,Humidity,Sea Level PressureIn,VisibilityMPH,Wind Direction,Wind SpeedMPH,Gust SpeedMPH,PrecipitationIn,Events,Conditions,WindDirDegrees,DateUTC
12:53 AM,80.1,73.9,81,29.91,10.0,ENE,8.1,-,N/A,,Scattered Clouds,70,2012-11-11 04:53:00
1:53 AM,80.1,73.0,79,29.89,10.0,ENE,11.5,-,N/A,,Clear,70,2012-11-11 05:53:00
2:53 AM,80.1,73.0,79,29.86,10.0,ENE,6.9,-,N/A,,Clear,60,2012-11-11 06:53:00
3:53 AM,80.1,73.9,81,29.86,10.0,NE,12.7,-,N/A,,Scattered Clouds,50,2012-11-11 07:53:00
4:53 AM,80.1,73.0,79,29.88,10.0,East,13.8,24.2,0.01,,Mostly Cloudy,80,2012-11-11 08:53:00
5:53 AM,81.0,73.9,79,29.90,10.0,Variable,5.8,16.1,N/A,,Overcast,0,2012-11-11 09:53:00
6:00 AM,80.6,73.4,79,29.90,10.0,ENE,11.5,16.1,N/A,,Overcast,60,2012-11-11 10:00:00
6:10 AM,78.8,73.4,83,29.91,10.0,NE,13.8,20.7,N/A,,Mostly Cloudy,50,2012-11-11 10:10:00
6:53 AM,79.0,73.9,84,29.93,10.0,NNE,17.3,24.2,N/A,,Overcast,30,2012-11-11 10:53:00
7:53 AM,79.0,73.0,82,29.94,10.0,NE,11.5,21.9,0.01,,Partly Cloudy,50,2012-11-11 11:53:00
8:53 AM,80.1,73.0,79,29.95,10.0,ENE,13.8,-,N/A,,Mostly Cloudy,60,2012-11-11 12:53:00
9:53 AM,82.9,73.9,74,29.96,10.0,ENE,13.8,24.2,N/A,,Partly Cloudy,60,2012-11-11 13:53:00
10:53 AM,84.9,73.9,69,29.94,10.0,ENE,13.8,25.3,N/A,,Partly Cloudy,60,2012-11-11 14:53:00
11:53 AM,84.9,75.0,72,29.92,10.0,ENE,12.7,23.0,N/A,,Mostly Cloudy,70,2012-11-11 15:53:00
12:53 PM,86.0,75.0,70,29.88,10.0,East,9.2,18.4,N/A,,Partly Cloudy,80,2012-11-11 16:53:00
1:53 PM,86.0,75.0,70,29.87,10.0,Variable,4.6,-,N/A,,Mostly Cloudy,0,2012-11-11 17:53:00
2:28 PM,84.2,75.2,74,29.86,10.0,ENE,12.7,-,N/A,,Scattered Clouds,60,2012-11-11 18:28:00
2:53 PM,84.0,75.0,74,29.86,10.0,NE,13.8,-,N/A,,Scattered Clouds,40,2012-11-11 18:53:00
3:53 PM,84.0,75.9,76,29.86,10.0,NE,6.9,-,N/A,,Scattered Clouds,50,2012-11-11 19:53:00
4:53 PM,82.9,75.9,79,29.87,10.0,ENE,8.1,-,N/A,,Scattered Clouds,60,2012-11-11 20:53:00
5:53 PM,81.0,75.0,82,29.88,10.0,ENE,8.1,-,N/A,,Partly Cloudy,60,2012-11-11 21:53:00
6:53 PM,81.0,75.0,82,29.90,10.0,ENE,11.5,-,N/A,,Partly Cloudy,70,2012-11-11 22:53:00
8:53 PM,80.1,75.9,87,29.93,10.0,NE,6.9,-,N/A,,Scattered Clouds,50,2012-11-12 00:53:00
9:36 PM,80.6,75.2,84,29.94,10.0,NNE,8.1,-,N/A,,Mostly Cloudy,30,2012-11-12 01:36:00
9:53 PM,80.1,75.9,87,29.94,10.0,NNE,9.2,-,0.01,,Mostly Cloudy,30,2012-11-12 01:53:00
10:03 PM,80.6,75.2,84,29.93,10.0,NE,12.7,-,N/A,,Mostly Cloudy,40,2012-11-12 02:03:00
10:53 PM,80.1,75.9,87,29.93,10.0,ENE,9.2,-,N/A,,Partly Cloudy,60,2012-11-12 02:53:00
11:53 PM,80.1,75.9,87,29.93,10.0,ENE,6.9,-,N/A,,Mostly Cloudy,60,2012-11-12 03:53:00